Kansas City International Airport Airport (MCI)

 

Airport Diagram
Current Weather/Forecast (VFR Conditions)
METAR KMCI 280253Z 26005KT 10SM CLR 11/11 A2998 RMK AO2 SLP148 60004 T01110106 53007 $
TAF KMCI 272320Z 2800/2824 01013G25KT P6SM -SHRA VCTS OVC070CB TEMPO 2800/2803 5SM -TSRA OVC040CB FM280300 30007KT P6SM BKN100 FM281600 32015G25KT P6SM SCT050

All Charts
General
Chart Name Download
AIRPORT DIAGRAM
TAKEOFF MINIMUMS
ALTERNATE MINIMUMS
HOT SPOT

Departures
Chart Name Download
CHIEF SEVEN
LAKES THREE
RACER SEVEN
ROYAL NINE
TIFTO SIX
WILDCAT FIVE

Arrivals
Chart Name Download
BRAYMER SIX
BRAYMER SIX, CONT.1
JHAWK SIX
JHAWK SIX, CONT.1
TYGER SIX
TYGER SIX, CONT.1

Approaches
Chart Name Download
ILS OR LOC RWY 01L
ILS OR LOC RWY 01R
ILS OR LOC RWY 09
ILS OR LOC RWY 19L
ILS OR LOC RWY 19R
ILS OR LOC RWY 27
ILS RWY 01R (SA CAT I)
ILS RWY 19R (SA CAT I)
ILS RWY 01R (CAT II - III)
ILS RWY 19R (CAT II - III)
RNAV (RNP) Z RWY 01L
RNAV (RNP) Z RWY 01R
RNAV (RNP) Z RWY 09
RNAV (RNP) Z RWY 19L
RNAV (RNP) Z RWY 19R
RNAV (RNP) Z RWY 27
RNAV (GPS) Y RWY 01L
RNAV (GPS) Y RWY 01R
RNAV (GPS) Y RWY 09
RNAV (GPS) Y RWY 19L
RNAV (GPS) Y RWY 19R
RNAV (GPS) Y RWY 27


Inbound Traffic (Arrivals)

No inbound traffic.


Outbound Traffic (Departures)

No outbound traffic.